Location: Breschan
(49.8383°N, 14.5294°E)
Time: 07:19:48
(UTC+00:00)

Daily predictions for brighter satellites

Satellite Brightness Start Highest point End
(mag) Time Altitude Azimuth Time Altitude Azimuth Time Altitude Azimuth
Cosmos 1697 Rocket 2.8 17:04:25 10° SSW 17:09:56 60° ESE 17:15:29 10° NE
Cosmos 2279 Rocket 4.1 17:05:04 10° N 17:11:16 58° ENE 17:17:26 10° SSE
Cosmos 1869 Rocket 3.7 17:10:49 10° S 17:15:17 84° W 17:19:49 10° N
Cosmos 1634 Rocket 4.1 17:10:55 10° N 17:17:08 89° W 17:23:19 10° S
Cosmos 2221 Rocket 3.9 17:15:07 10° N 17:19:28 46° ENE 17:23:50 10° SSE
ASTEX 1 3.5 17:15:51 10° NNE 17:20:47 60° E 17:25:43 10° S
Cosmos 468 Rocket 4.2 17:17:26 10° NNW 17:22:36 77° WSW 17:27:45 10° SSE
ATLAS 2AS CENTAUR R/B 4.2 17:17:30 10° W 17:24:21 35° NNW 17:30:55 10° NE
Cosmos 1378 Rocket 4.0 17:22:26 10° N 17:26:36 39° ENE 17:30:41 10° SE
PSLV R/B 3.8 17:23:16 10° SSE 17:26:58 81° WSW 17:30:40 10° NNW
USA 229 DEB 4.2 17:22:37 10° NW 17:29:57 78° SW 17:37:48 10° SSE
USA 229 4.1 17:22:43 10° NW 17:30:03 79° SW 17:37:54 10° SSE
Cosmos 540 Rocket 3.5 17:27:46 10° NNW 17:32:55 84° WSW 17:38:01 10° SSE
MOS 1-B 4.4 17:27:24 10° SSE 17:33:13 87° ENE 17:39:05 10° NNW
Cosmos 2227 Rocket 3.5 17:27:53 10° NW 17:33:15 45° WSW 17:38:34 10° S
Cosmos 1733 3.2 17:30:17 10° S 17:33:57 54° E 17:37:37 10° NNE
Cosmos 1733 Rocket 3.1 17:34:29 10° S 17:38:51 63° E 17:43:16 10° NNE
CZ-4B R/B 3.2 17:36:37 10° SSE 17:42:00 90° SSW 17:47:31 10° NNW
Cosmos 841 Rocket 3.4 17:38:40 10° NNW 17:43:53 81° ENE 17:49:03 10° SSE
Cosmos 2084 3.1 17:40:55 10° SSW 17:44:41 62° SE 17:48:28 10° NE
Cosmos 1626 3.7 17:41:47 10° NNW 17:45:12 39° W 17:48:35 10° SSW
CSL-04 Rocket 4.3 17:40:32 10° SE 17:45:20 35° ENE 17:50:13 10° N
Feng Yun 1-1 Rocket 4.2 17:41:19 10° SSE 17:46:45 65° ENE 17:52:08 10° N
Cosmos 1850 Rocket 4.1 17:41:49 10° S 17:46:53 55° ESE 17:52:03 10° NNE
Cosmos 1975 4.2 17:43:20 10° SSW 17:47:12 44° WNW 17:51:06 10° N
ISS -3.6 17:44:07 10° WNW 17:47:28 70° SSW 17:49:52 18° ESE
Okean 2 4.2 17:44:24 10° NNW 17:48:29 56° W 17:52:32 10° S
COSMO-SKYMED 1 3.5 17:44:46 10° N 17:49:01 54° WNW 17:53:14 10° SSW
Okean-O 3.5 17:46:36 13° ESE 17:49:49 30° ENE 17:53:41 10° N
Cosmos 1980 Rocket 2.2 17:44:34 10° SSW 17:50:07 63° ESE 17:55:42 10° NE
NOSS 7 (H) 4.4 17:47:00 10° NW 17:50:11 82° NE 17:53:45 13° SE
HJ-1C 3.2 17:49:16 10° S 17:52:22 81° WSW 17:55:31 10° NNW
CZ-4 R/B 1.4 17:48:23 10° SSE 17:52:32 75° ENE 17:56:44 10° N
SJ-6B 3.4 17:54:52 18° ESE 17:57:07 34° ENE 18:00:33 10° N
Cosmos 2369 3.7 17:52:15 10° SSW 17:57:58 76° ESE 18:03:42 10° NNE
DMSP B5D1-3 4.4 17:54:49 10° NNE 17:59:55 66° ESE 18:05:00 10° S
Cosmos 2278 3.9 17:59:58 10° S 18:05:24 48° ESE 18:10:51 10° NE
Meteor 1-24 Rocket 4.1 18:00:56 10° N 18:05:54 38° ENE 18:09:12 19° SE
Meteor 2-10 4.1 18:01:00 10° S 18:06:41 83° E 18:12:13 10° NNE
USA 215 3.7 18:00:41 10° ENE 18:07:07 61° NNW 18:13:31 10° W
USA 186 2.1 18:06:54 25° SE 18:08:26 45° ENE 18:11:39 10° N
SL-16 R/B 3.0 18:04:22 10° SSE 18:08:58 26° ESE 18:13:34 10° NE
IRIDIUM 104 4.2 18:04:10 10° S 18:09:22 74° E 18:14:36 10° N
Cosmos 2208 Rocket 4.4 18:08:46 10° NNW 18:13:56 46° ENE 18:16:50 24° ESE
Cosmos 1437 Rocket 3.1 18:10:45 10° SSE 18:14:12 36° E 18:17:40 10° NNE
Cosmos 2285 Rocket 4.0 18:08:51 10° NNW 18:15:13 73° ENE 18:20:53 14° SSE
Cosmos 1844 Rocket 3.6 18:10:07 10° NNW 18:15:14 33° NE 18:17:37 24° E
SL-4 R/B 2.2 18:11:12 10° WNW 18:15:42 87° SSW 18:18:03 29° ESE
Cosmos 1741 Rocket 4.0 18:10:30 10° SSW 18:15:48 88° ESE 18:21:07 10° NNE
Cosmos 2278 Rocket 4.4 18:16:32 10° N 18:18:17 11° NNE 18:20:01 10° NE
IRIDIUM 114 4.3 18:13:17 10° S 18:18:30 87° E 18:23:46 10° N
Timation 2 Rocket 4.2 18:12:08 10° NNW 18:18:37 72° WSW 18:24:47 10° SSE
Cosmos 2026 Rocket 4.3 18:13:09 10° SSE 18:18:41 39° E 18:24:15 10° NNE
Helios 1B 4.4 18:15:09 10° NNE 18:19:30 68° ESE 18:23:48 10° S
USA 81 4.4 18:15:30 10° N 18:20:30 42° ENE 18:23:04 25° SE
USA-17 4.4 18:18:35 10° NW 18:21:47 87° NE 18:23:15 35° SE
Okean O Rocket 2.5 18:17:42 10° S 18:21:56 49° W 18:26:12 10° NNW
Cosmos 1908 Rocket 3.4 18:18:50 10° S 18:23:06 64° E 18:27:25 10° NNE
Nadezhda 4 Rocket 3.9 18:19:05 10° S 18:25:25 82° E 18:31:46 10° N
Landsat 5 3.6 18:21:15 10° NNE 18:25:43 57° E 18:30:07 10° S
Cosmos 1814 Rocket 4.0 18:21:01 10° NNW 18:26:20 88° WSW 18:30:29 16° SSE
Cosmos 2292 Rocket 3.8 18:21:51 10° S 18:27:26 61° E 18:31:39 10° NNE
IRIDIUM 103 4.4 18:22:27 10° S 18:27:40 79° W 18:32:55 10° N
Meteor 2-21 4.5 18:22:09 10° SSW 18:28:12 82° W 18:34:17 10° N
Cosmos 1782 Rocket 3.8 18:29:51 37° SE 18:30:46 42° E 18:34:53 10° NNE
BREEZE M DEB (TANK) 3.8 18:27:14 10° SSW 18:31:25 22° SSE 18:31:25 22° SSE
Cosmos 2263 Rocket 2.8 18:27:16 10° NW 18:32:51 58° WSW 18:38:25 10° S
Cosmos 2227 4.2 18:30:14 10° NNW 18:35:54 85° WSW 18:39:32 23° SSE
YAOGAN 1 4.5 18:32:06 10° SSW 18:35:55 31° W 18:39:47 10° NNW
Cosmos 1844 4.3 18:31:32 10° NNW 18:36:44 38° NE 18:38:13 32° E
Meteor 2-5 Rocket 3.6 18:31:51 10° N 18:37:26 76° ENE 18:41:16 21° SSE
Meteor 1-15 Rocket 4.1 18:33:10 10° S 18:38:45 77° E 18:44:20 10° NNE
Cosmos 1726 3.1 18:35:23 10° SSW 18:38:53 46° WNW 18:42:27 10° N
OBJECT-B 1.1 18:38:57 44° WSW 18:39:09 46° W 18:41:40 10° NNW
H-2A R/B 2.8 18:39:28 40° ENE 18:39:28 40° ENE 18:42:59 10° N
CRYOSAT 2 4.2 18:39:05 21° SSE 18:42:20 74° E 18:47:15 10° N
MetOp-A 3.6 18:43:45 45° NE 18:43:45 45° NE 18:47:15 10° N
Cosmos 1766 4.2 18:45:23 10° SSW 18:49:10 48° WNW 18:53:01 10° N
IRS-1C Rocket 4.0 18:46:16 23° SSE 18:49:40 87° WSW 18:54:58 10° NNW
Cosmos 1025 Rocket 2.9 18:46:41 10° N 18:50:58 64° ENE 18:51:17 62° ESE
SPOT 1/Viking Rocket 3.7 18:51:29 45° E 18:52:12 48° ENE 18:57:08 10° N
Cosmos 2084 Rocket 3.4 18:48:36 10° NW 18:52:17 53° NE 18:52:17 53° NE
Spot 2 4.3 18:56:37 49° NE 18:56:37 49° NE 19:00:23 10° N
Cosmos 1975 Rocket 2.9 18:55:49 10° N 19:00:17 84° ENE 19:00:50 68° SSE
Landsat 7 3.8 19:00:02 42° S 19:01:38 83° WSW 19:06:23 10° NNW
IGS 5A 4.1 18:59:49 27° SSW 19:01:48 54° W 19:05:53 10° NNW
Cosmos 1092 Rocket 3.9 18:56:07 10° S 19:02:26 88° ESE 19:08:46 10° N
Resurs 01 Rocket 1.7 19:05:25 58° NE 19:05:25 58° NE 19:09:26 10° N
Cosmos 968 Rocket 3.4 19:05:26 10° SSW 19:10:42 88° WNW 19:15:59 10° NNE
IRS-1A Rocket 4.2 19:14:24 61° ESE 19:15:10 68° ENE 19:20:55 10° NNW
Cosmos 1470 3.2 19:15:56 57° W 19:15:59 57° WNW 19:19:48 10° N
ATLAS 2AS CENTAUR R/B 4.3 19:11:13 10° NW 19:17:26 27° N 19:21:35 17° NE
ISS -1.1 19:21:27 10° W 19:22:45 15° WSW 19:22:45 15° WSW
Ariane Rocket 3.3 19:25:15 54° NE 19:25:15 54° NE 19:29:37 10° N
Cosmos 2322 Rocket 3.2 19:19:31 10° SSW 19:27:50 32° NE 19:30:51 10° NNE
Okean-O 4.0 19:24:10 23° SW 19:26:12 35° W 19:30:18 10° NNW
ERS-1 Rocket 4.4 19:27:50 25° NNE 19:27:50 25° NNE 19:30:40 10° N
Terra 3.7 19:28:16 19° NNE 19:28:16 19° NNE 19:30:10 10° N
CZ-4 R/B 4.5 19:26:01 10° WSW 19:27:59 13° W 19:29:58 10° WNW
NOSS 3-4 (A) 4.4 19:23:18 10° NW 19:29:37 44° NNE 19:31:05 39° ENE
NOSS 3-4 (C) 4.4 19:23:25 10° NW 19:29:43 43° NNE 19:31:11 39° ENE
Gbstr 26 Del rocket 4.4 19:23:51 10° WSW 19:31:45 87° SSE 19:34:42 45° ENE
S3M 4.0 19:25:51 10° N 19:31:54 60° ENE 19:31:54 60° ENE
Cosmos 1980 Rocket 4.0 19:29:40 10° WSW 19:34:33 29° NW 19:39:27 10° NNE
SPOT 5 4.2 19:41:30 29° NNE 19:41:30 29° NNE 19:44:10 10° N
USA 215 3.9 19:47:18 35° NE 19:49:37 48° N 19:55:49 10° WNW
SL-16 R/B 2.6 19:47:03 10° SW 19:52:40 61° WNW 19:58:19 10° NNE
Cosmos 1417 Rocket 4.4 19:48:07 10° N 19:54:16 82° W 19:54:18 82° WSW
SL-4 R/B 4.1 19:50:51 10° W 19:53:27 26° WSW 19:53:27 26° WSW
Cosmos 1844 Rocket 3.2 19:53:53 10° NW 19:59:17 55° WSW 19:59:17 55° WSW
Cosmos 2278 Rocket 3.5 19:59:13 10° NNW 20:03:03 29° NNE 20:03:03 29° NNE
Cosmos 1943 Rocket 4.2 20:10:32 10° N 20:13:27 17° NNE 20:13:27 17° NNE
USA 281 3.3 20:16:22 68° N 20:16:22 68° N 20:22:12 10° NNW
Resurs 01 Rocket 4.2 20:42:59 16° WNW 20:42:59 16° WNW 20:44:55 10° NW
Cosmos 2360 Rocket 4.2 20:46:45 20° NNE 20:46:45 20° NNE 20:48:29 10° NNE
Terra 4.3 21:07:09 19° NNW 21:07:09 19° NNW 21:08:33 10° NNW
Cosmos 2322 Rocket 4.0 21:09:30 28° NW 21:09:43 28° NW 21:14:38 10° NNE
ATLAS 2AS CENTAUR R/B 3.7 21:03:16 10° NW 21:09:00 42° N 21:09:00 42° N
USA 215 4.3 21:34:39 39° NW 21:34:39 39° NW 21:38:37 10° WNW
Cosmos 2278 Rocket 4.4 21:43:10 10° NW 21:44:53 20° NW 21:44:53 20° NW
SL-16 R/B 4.2 23:45:23 28° NNE 23:45:23 28° NNE 23:49:07 10° N
